Location: Highridge
(54.0333°N, 114.1333°W)
Time: 12:39:46
(UTC+00:00)

Oscar 19 - Pass Details

Date: 07 December 2023
Orbit: 771 x 789 km, 98.9° (Epoch: 01 March)

Event Time Altitude Azimuth Distance (km) Brightness Sun altitude
Rises 00:30:35 0° 205° (SSW) 3,236 14.7 -10.2°
Reaches altitude 10° 00:33:25 10° 221° (SW) 2,315 14.2 -10.6°
Maximum altitude 00:37:15 21° 270° (W) 1,681 13.3 -11.1°
Drops below altitude 10° 00:41:07 10° 319° (NW) 2,332 13.3 -11.6°
Sets 00:44:00 0° 335° (NNW) 3,267 13.9 -12.0°
